World > North America > United States > Florida

Miami, Florida Regional Weather

Lat: 25.77N, Lon: 80.2W
Wx Zone: FLZ074
Warning FLW WEATHER ALERT - (More Info. Click Here) Warning
Feedback

Miami, FL Regional Weather

Expires:201908241800;;143419
ASUS42 KTBW 241718
RWRFL 
FLORIDA REGIONAL WEATHER ROUNDUP
NATIONAL WEATHER SERVICE TAMPA BAY RUSKIN FL
100 PM EDT SAT AUG 24 2019

NOTE: "FAIR" INDICATES FEW OR NO CLOUDS BELOW 12,000 FEET WITH NO
SIGNIFICANT WEATHER AND/OR OBSTRUCTIONS TO VISIBILITY.


FLZ067-068-071>074-168-172>174-241800-
SOUTHEAST FLORIDA 
  
CITY           SKY/WX    TMP DP  RH WIND       PRES   REMARKS
W PALM BEACH   TSTM      83  76  79 CALM      29.95S                  
BOCA RATON     HVY RAIN  82  79  89 SE9       29.94S                  
FT LAUDER-EXEC RAIN      84  76  76 SE13      29.94S                  
FT LAUDERDALE  PTSUNNY   81  75  82 SE14      29.94S                  
POMPANO BEACH  PTSUNNY   86  77  74 S15G22    29.94S HX  97           
PEMBROKE PINES LGT RAIN  82  75  79 S6        29.97R                  
OPA LOCKA      PTSUNNY   82  74  76 SE9       29.96R                  
MIAMI          PTSUNNY   82  76  81 SE10      29.95S                  
WEST KENDALL   CLOUDY    83  78  85 SE7       29.95S                  
HOMESTEAD      TSTM      79  77  94 SW13      29.95R FOG              

STATION/POSITION SKY/WX   TEMP    WIND        PRES    WAVE   SWELL
                          AIR SEA DIR/SP/G            HT/PER HT/PER
                          (F)     (DEG/KT/KT) (MB)    (FT/S) (FT/S)
VIRGINIA KEY               81 87   50/  3/  5 1014.4
LAKE WORTH                 84 86  140/  9/ 11 1015.1
FOWEY ROCKS                80 86  280/  5/  7 1014.7S
SETTLEMENT POINT           79     160/  6

SKY/WX - Weather  TMP - Temperature  DP - Dew Point  RH - Relative Humidity
WIND - Wind Direction/Speed PRES - Barometric Pressure VSB - Visibility
WCI - Wind Chill Index E13G22 Wind - East Wind 13 mph/Gusts of 22 mph